WMT39L LTFM-LRSV

Flight info

Callsign WMT39L
Flight time 1h 5m
Altitude 32000
Route IBLAX P727 BGS T777 NUPVU DCT IDARU
Aircraft A20N/M-SDE2E3FGHIRWXY/LB1

Departure

Time 2026-04-26 16:17
Airport İstanbul Airport (LTFM)

Arrival

Time 2026-04-26 17:23
Airport Suceava Ștefan cel Mare International Airport (LRSV)
Time Latitude Longitude Altitude Speed Heading
2026-04-26 15:26 41.29372 28.71907 223 ft 0 kts 179°
2026-04-26 16:01 41.29373 28.71907 223 ft 1 kts 179°
2026-04-26 16:02 41.29394 28.71907 226 ft 3 kts 179°
2026-04-26 16:02 41.29416 28.71907 223 ft 3 kts 190°
2026-04-26 16:02 41.29438 28.71913 223 ft 3 kts 182°
2026-04-26 16:02 41.29452 28.71912 226 ft 3 kts 161°
2026-04-26 16:03 41.29476 28.71890 224 ft 3 kts 120°
2026-04-26 16:03 41.29483 28.71865 223 ft 0 kts 91°
2026-04-26 16:13 41.29483 28.71905 222 ft 9 kts 91°
2026-04-26 16:13 41.29485 28.72020 223 ft 17 kts 89°
2026-04-26 16:13 41.29487 28.72212 224 ft 24 kts 89°
2026-04-26 16:13 41.29488 28.72285 224 ft 0 kts 90°
2026-04-26 16:16 41.29488 28.72298 224 ft 6 kts 90°
2026-04-26 16:16 41.29487 28.72404 226 ft 15 kts 102°
2026-04-26 16:16 41.29393 28.72461 228 ft 19 kts 176°
2026-04-26 16:16 41.29159 28.72467 237 ft 58 kts 180°
2026-04-26 16:17 41.28569 28.72479 251 ft 112 kts 179°
2026-04-26 16:17 41.27632 28.72493 284 ft 152 kts 178°
2026-04-26 16:17 41.26457 28.72539 521 ft 179 kts 179°
2026-04-26 16:17 41.25244 28.72677 1510 ft 175 kts 175°
2026-04-26 16:18 41.24061 28.72945 2527 ft 174 kts 171°
2026-04-26 16:18 41.22103 28.72326 2924 ft 140 kts 240°
2026-04-26 16:19 41.21401 28.69690 3087 ft 172 kts 270°
2026-04-26 16:19 41.21644 28.68050 3566 ft 193 kts 296°
2026-04-26 16:19 41.23566 28.66102 4455 ft 233 kts 338°
2026-04-26 16:20 41.25176 28.65322 4895 ft 258 kts 340°
2026-04-26 16:20 41.28596 28.63708 5032 ft 261 kts 339°
2026-04-26 16:20 41.30278 28.62889 5029 ft 261 kts 339°
2026-04-26 16:21 41.31992 28.62040 5123 ft 264 kts 338°
2026-04-26 16:21 41.33511 28.61282 5568 ft 265 kts 338°
2026-04-26 16:21 41.35235 28.60418 6667 ft 262 kts 339°
2026-04-26 16:21 41.36955 28.59554 7634 ft 268 kts 339°
2026-04-26 16:22 41.38717 28.58671 8560 ft 273 kts 339°
2026-04-26 16:22 41.40513 28.57771 9517 ft 278 kts 339°
2026-04-26 16:22 41.42340 28.56855 10386 ft 285 kts 339°
2026-04-26 16:22 41.44267 28.55888 10805 ft 308 kts 339°
2026-04-26 16:23 41.46349 28.54844 11165 ft 329 kts 339°
2026-04-26 16:23 41.48521 28.53755 11920 ft 336 kts 339°
2026-04-26 16:23 41.50725 28.52651 12787 ft 340 kts 339°
2026-04-26 16:23 41.52944 28.51537 13636 ft 345 kts 338°
2026-04-26 16:24 41.55211 28.50399 14397 ft 349 kts 338°
2026-04-26 16:24 41.57491 28.49254 15177 ft 351 kts 338°
2026-04-26 16:24 41.59797 28.48095 15810 ft 356 kts 338°
2026-04-26 16:24 41.62113 28.46929 16579 ft 359 kts 338°
2026-04-26 16:25 41.64466 28.45744 17319 ft 363 kts 338°
2026-04-26 16:25 41.66832 28.44551 18040 ft 367 kts 338°
2026-04-26 16:25 41.68936 28.43490 18606 ft 371 kts 338°
2026-04-26 16:25 41.71374 28.42259 19247 ft 374 kts 338°
2026-04-26 16:26 41.73820 28.41022 19903 ft 377 kts 338°
2026-04-26 16:26 41.76284 28.39775 20530 ft 380 kts 338°
2026-04-26 16:26 41.78767 28.38518 21164 ft 384 kts 338°
2026-04-26 16:26 41.81276 28.37247 21777 ft 387 kts 338°
2026-04-26 16:27 41.83806 28.35964 22402 ft 390 kts 338°
2026-04-26 16:27 41.86357 28.34670 23028 ft 393 kts 338°
2026-04-26 16:27 41.88925 28.33366 23598 ft 397 kts 338°
2026-04-26 16:27 41.91517 28.32048 24107 ft 400 kts 338°
2026-04-26 16:28 41.94128 28.30721 24625 ft 402 kts 338°
2026-04-26 16:28 41.96647 28.29092 25101 ft 403 kts 327°
2026-04-26 16:28 41.98863 28.26794 25577 ft 405 kts 315°
2026-04-26 16:28 42.00695 28.23903 26046 ft 407 kts 304°
2026-04-26 16:29 42.02279 28.20740 26508 ft 410 kts 304°
2026-04-26 16:29 42.03884 28.17551 26962 ft 412 kts 304°
2026-04-26 16:29 42.05502 28.14343 27379 ft 416 kts 304°
2026-04-26 16:29 42.07125 28.11123 27802 ft 418 kts 304°
2026-04-26 16:30 42.08785 28.07883 28222 ft 421 kts 307°
2026-04-26 16:30 42.10738 28.04959 28620 ft 424 kts 318°
2026-04-26 16:30 42.13145 28.02657 29012 ft 427 kts 330°
2026-04-26 16:30 42.14015 28.02070 29124 ft 429 kts 335°
2026-04-26 16:31 42.15568 28.01264 29335 ft 431 kts 340°
2026-04-26 16:31 42.18285 28.00124 29681 ft 433 kts 342°
2026-04-26 16:31 42.21194 27.99004 30049 ft 436 kts 343°
2026-04-26 16:31 42.24121 27.97888 30385 ft 438 kts 342°
2026-04-26 16:32 42.26795 27.96854 30698 ft 440 kts 342°
2026-04-26 16:32 42.30733 27.95303 31159 ft 442 kts 342°
2026-04-26 16:32 42.33516 27.94195 31579 ft 441 kts 342°
2026-04-26 16:33 42.36308 27.93078 31848 ft 439 kts 342°
2026-04-26 16:33 42.39097 27.91960 31924 ft 438 kts 342°
2026-04-26 16:33 42.44891 27.89633 31924 ft 437 kts 342°
2026-04-26 16:34 42.50715 27.87289 31922 ft 437 kts 342°
2026-04-26 16:34 42.56507 27.84955 31922 ft 436 kts 342°
2026-04-26 16:35 42.62246 27.82637 31922 ft 436 kts 342°
2026-04-26 16:35 42.68053 27.80287 31922 ft 436 kts 342°
2026-04-26 16:36 42.73776 27.77967 31919 ft 435 kts 342°
2026-04-26 16:36 42.79581 27.75609 31919 ft 435 kts 342°
2026-04-26 16:37 42.85379 27.73250 31917 ft 435 kts 343°
2026-04-26 16:37 42.90235 27.71270 31913 ft 435 kts 343°
2026-04-26 16:38 42.96956 27.68524 31901 ft 435 kts 343°
2026-04-26 16:38 43.02750 27.66151 31893 ft 434 kts 343°
2026-04-26 16:39 43.08532 27.63780 31895 ft 434 kts 343°
2026-04-26 16:39 43.14312 27.61404 31888 ft 433 kts 343°
2026-04-26 16:40 43.20121 27.59013 31886 ft 433 kts 343°
2026-04-26 16:40 43.25892 27.56632 31888 ft 432 kts 343°
2026-04-26 16:41 43.31641 27.54255 31888 ft 431 kts 342°
2026-04-26 16:41 43.37309 27.51907 31885 ft 431 kts 342°
2026-04-26 16:42 43.43048 27.49524 31880 ft 430 kts 342°
2026-04-26 16:42 43.48776 27.47142 31881 ft 430 kts 342°
2026-04-26 16:43 43.54491 27.44760 31877 ft 429 kts 342°
2026-04-26 16:43 43.60170 27.42389 31879 ft 429 kts 342°
2026-04-26 16:44 43.65912 27.39987 31878 ft 428 kts 342°
2026-04-26 16:44 43.71522 27.37635 31881 ft 428 kts 342°
2026-04-26 16:45 43.77216 27.35243 31881 ft 427 kts 342°
2026-04-26 16:45 43.82899 27.32852 31880 ft 427 kts 342°
2026-04-26 16:46 43.88585 27.30454 31882 ft 427 kts 342°
2026-04-26 16:46 43.94273 27.28051 31885 ft 427 kts 342°
2026-04-26 16:47 43.99945 27.25649 31887 ft 427 kts 342°
2026-04-26 16:47 44.05558 27.23269 31894 ft 427 kts 342°
2026-04-26 16:48 44.11243 27.20852 31899 ft 427 kts 342°
2026-04-26 16:48 44.16918 27.18435 31907 ft 427 kts 342°
2026-04-26 16:49 44.22597 27.16012 31915 ft 426 kts 342°
2026-04-26 16:49 44.28261 27.13590 31920 ft 426 kts 342°
2026-04-26 16:50 44.33864 27.11189 31932 ft 425 kts 341°
2026-04-26 16:50 44.39525 27.08759 31936 ft 425 kts 341°
2026-04-26 16:51 44.45183 27.06325 31939 ft 424 kts 341°
2026-04-26 16:51 44.50817 27.03896 31943 ft 424 kts 341°
2026-04-26 16:52 44.54547 27.02286 31942 ft 423 kts 341°
2026-04-26 16:52 44.62064 26.99036 31944 ft 422 kts 342°
2026-04-26 16:53 44.67845 26.97497 31944 ft 424 kts 351°
2026-04-26 16:53 44.73618 26.96451 31947 ft 423 kts 350°
2026-04-26 16:54 44.79497 26.95369 31951 ft 423 kts 350°
2026-04-26 16:54 44.85328 26.94301 31955 ft 422 kts 350°
2026-04-26 16:55 44.91114 26.93241 31958 ft 422 kts 350°
2026-04-26 16:55 44.96940 26.92171 31961 ft 422 kts 350°
2026-04-26 16:56 45.05663 26.90566 31967 ft 421 kts 349°
2026-04-26 16:57 45.11475 26.89494 31974 ft 421 kts 349°
2026-04-26 16:57 45.20179 26.87883 31986 ft 420 kts 349°
2026-04-26 16:58 45.24056 26.87165 31989 ft 420 kts 349°
2026-04-26 16:59 45.34391 26.85244 31999 ft 419 kts 349°
2026-04-26 17:00 45.45873 26.83101 32009 ft 418 kts 349°
2026-04-26 17:00 45.54587 26.81469 32005 ft 417 kts 349°
2026-04-26 17:01 45.60308 26.80396 32014 ft 417 kts 349°
2026-04-26 17:01 45.66070 26.79311 32016 ft 418 kts 349°
2026-04-26 17:02 45.70556 26.78465 32018 ft 418 kts 349°
2026-04-26 17:02 45.76327 26.77375 32010 ft 418 kts 349°
2026-04-26 17:03 45.82107 26.76281 32037 ft 419 kts 348°
2026-04-26 17:03 45.87894 26.75182 32034 ft 420 kts 348°
2026-04-26 17:04 45.93683 26.74082 32052 ft 420 kts 348°
2026-04-26 17:04 45.99476 26.72981 32062 ft 420 kts 348°
2026-04-26 17:05 46.05274 26.71878 32056 ft 420 kts 348°
2026-04-26 17:05 46.11071 26.70771 32063 ft 420 kts 348°
2026-04-26 17:06 46.16874 26.69659 32073 ft 421 kts 348°
2026-04-26 17:06 46.22676 26.68542 32077 ft 420 kts 348°
2026-04-26 17:07 46.28447 26.67428 32060 ft 418 kts 348°
2026-04-26 17:07 46.34175 26.66321 32061 ft 418 kts 348°
2026-04-26 17:08 46.39966 26.65203 31947 ft 414 kts 347°
2026-04-26 17:08 46.42813 26.64653 31446 ft 413 kts 347°
2026-04-26 17:08 46.45660 26.64101 30744 ft 413 kts 347°
2026-04-26 17:09 46.48466 26.63555 29806 ft 416 kts 348°
2026-04-26 17:09 46.50427 26.63171 28901 ft 422 kts 348°
2026-04-26 17:09 46.54334 26.62406 27170 ft 433 kts 348°
2026-04-26 17:09 46.57377 26.61813 25973 ft 438 kts 348°
2026-04-26 17:10 46.60377 26.61230 24798 ft 443 kts 348°
2026-04-26 17:10 46.63446 26.60632 23698 ft 446 kts 348°
2026-04-26 17:10 46.66511 26.60036 22709 ft 443 kts 348°
2026-04-26 17:10 46.69426 26.59470 21885 ft 437 kts 348°
2026-04-26 17:11 46.72421 26.58887 20986 ft 432 kts 348°
2026-04-26 17:11 46.75378 26.58309 20127 ft 428 kts 348°
2026-04-26 17:11 46.78320 26.57732 19265 ft 424 kts 349°
2026-04-26 17:11 46.81221 26.57162 18481 ft 419 kts 349°
2026-04-26 17:12 46.86939 26.56035 16790 ft 409 kts 349°
2026-04-26 17:12 46.89737 26.55483 15979 ft 403 kts 349°
2026-04-26 17:13 46.95219 26.54400 14439 ft 393 kts 349°
2026-04-26 17:13 46.97926 26.53862 13626 ft 389 kts 349°
2026-04-26 17:13 47.03249 26.52803 11857 ft 383 kts 349°
2026-04-26 17:14 47.05875 26.52281 11000 ft 381 kts 349°
2026-04-26 17:14 47.11113 26.51239 9339 ft 377 kts 349°
2026-04-26 17:14 47.13693 26.50728 8583 ft 372 kts 349°
2026-04-26 17:15 47.18769 26.49719 7110 ft 364 kts 349°
2026-04-26 17:15 47.21269 26.49221 6455 ft 359 kts 349°
2026-04-26 17:15 47.23699 26.48739 6167 ft 344 kts 349°
2026-04-26 17:16 47.26003 26.48283 6095 ft 324 kts 349°
2026-04-26 17:16 47.28171 26.47854 6088 ft 304 kts 349°
2026-04-26 17:16 47.30213 26.47447 5818 ft 294 kts 349°
2026-04-26 17:16 47.32260 26.47031 5068 ft 301 kts 349°
2026-04-26 17:17 47.34377 26.46598 4148 ft 312 kts 349°
2026-04-26 17:17 47.36545 26.46158 3457 ft 315 kts 349°
2026-04-26 17:17 47.38547 26.45757 3180 ft 305 kts 350°
2026-04-26 17:17 47.40597 26.45348 3044 ft 290 kts 350°
2026-04-26 17:18 47.42540 26.44963 3023 ft 272 kts 349°
2026-04-26 17:18 47.44356 26.44603 3021 ft 255 kts 349°
2026-04-26 17:18 47.46099 26.44254 3011 ft 254 kts 349°
2026-04-26 17:18 47.47821 26.43904 3010 ft 249 kts 349°
2026-04-26 17:19 47.51063 26.43242 3003 ft 222 kts 346°
2026-04-26 17:19 47.52667 26.42596 3007 ft 250 kts 340°
2026-04-26 17:19 47.54307 26.41847 2998 ft 243 kts 340°
2026-04-26 17:20 47.55881 26.41147 3000 ft 230 kts 341°
2026-04-26 17:20 47.56876 26.40708 2993 ft 221 kts 341°
2026-04-26 17:20 47.58758 26.39879 2984 ft 197 kts 340°
2026-04-26 17:20 47.59997 26.39336 2994 ft 186 kts 340°
2026-04-26 17:21 47.61236 26.38803 2977 ft 187 kts 341°
2026-04-26 17:21 47.62487 26.38262 2710 ft 185 kts 339°
2026-04-26 17:21 47.63665 26.37727 2407 ft 170 kts 341°
2026-04-26 17:21 47.64714 26.37223 2224 ft 151 kts 340°
2026-04-26 17:22 47.65696 26.36803 1871 ft 143 kts 339°
2026-04-26 17:22 47.66575 26.36396 1666 ft 124 kts 338°
2026-04-26 17:22 47.67330 26.36038 1516 ft 101 kts 337°
2026-04-26 17:22 47.68009 26.35738 1420 ft 110 kts 338°
2026-04-26 17:23 47.68741 26.35404 1360 ft 101 kts 340°
2026-04-26 17:23 47.69280 26.35136 1359 ft 57 kts 341°
2026-04-26 17:23 47.69340 26.35112 1359 ft 3 kts 346°
2026-04-26 17:23 47.69483 26.35055 1360 ft 37 kts 343°
2026-04-26 17:24 47.69666 26.34926 1357 ft 16 kts 354°
2026-04-26 17:24 47.69650 26.34985 1358 ft 15 kts 145°
2026-04-26 17:24 47.69471 26.35073 1361 ft 38 kts 164°
2026-04-26 17:24 47.69153 26.35218 1358 ft 57 kts 162°
2026-04-26 17:25 47.68845 26.35356 1360 ft 42 kts 162°
2026-04-26 17:25 47.68757 26.35332 1360 ft 13 kts 243°
2026-04-26 17:25 47.68732 26.35219 1358 ft 7 kts 250°
2026-04-26 17:25 47.68657 26.35199 1358 ft 18 kts 164°
2026-04-26 17:26 47.68608 26.35201 1358 ft 7 kts 224°
2026-04-26 17:26 47.68601 26.35137 1358 ft 0 kts 279°
2026-04-26 17:26 47.68602 26.35128 1358 ft 3 kts 278°
2026-04-26 17:26 47.68602 26.35127 1358 ft 0 kts 278°